OneWeb SL0365

operational
NORAD ID: 49291 Int'l Des: 2021-090 Owner: ONEWEBN Country: UK Constellation: oneweb
LEOCIRCULARPOLARONEWEB_TYPE

Über OneWeb SL0365

Beschreibung wird geladen...

Live-Position

3D-Globus wird geladen...

Nächste Überflüge

Höhenverlauf

Altitude vs Time

uPlot chart will show altitude changes over time

Zweizeiliger Elementsatz

1 49291U 21090N 25349.93752809 .00000107 00000-0 23419-3 0 9993
2 49291 87.9211 341.4130 0001864 84.4395 275.6950 13.19724553202258
Epoch: 15. Dez. 2025 • Age: 16 hours

Aktueller Status

Höhe 1209.9 km
Geschwindigkeit 7.25 km/s
Subsatellitenpunkt -59.00°S, 134.71°W
Startdatum 14. Okt. 2021
Alter 4.1 years
Typ internet

Technische Details

Klassifizierung Payload
Masse 148.00 kg
Trockenmasse 140.00 kg
Gesamtmasse 148.00 kg
Länge 1.30 m
Durchmesser 1.00 m
Spannweite 5.00 m
Form Trapezoid+2 pan
Hersteller ONEWUS
Bus-Typ ARROW
Phasenstatus In Orbit
Besitzer/Staat ONEWEBN/UK

Große Konstellationen

Loading constellations...